Location: Oshawa
(43.9000°N, 78.8670°W)
Time: 08:59:55
(UTC-04:00)

Cosmos 1821 Rocket - Pass Details

Date: 24 April 2018
Orbit: 944 x 1006 km, 82.9° (Epoch: 20 May)

Event Time Altitude Azimuth Distance (km) Brightness Sun altitude
Exits shadow 20:41:50 - 109° (ESE) 3,027 5.9 -6.1°
Reaches altitude 10° 20:43:32 10° 95° (E) 2,758 5.8 -6.4°
Maximum altitude 20:45:31 12° 77° (ENE) 2,639 5.8 -6.7°
Drops below altitude 10° 20:47:29 10° 58° (ENE) 2,751 6.1 -7.0°
Sets 20:52:00 0° 28° (NNE) 3,691 7.0 -7.8°
